Regional Weather Roundup
Issued by NWS

Home | Current Version | Previous Version | Text Only | Print | Product List | Glossary Off
Versions: 1 2 3 4 5 6 7 8 9 10 11 12 13 14 15 16 17 18 19 20 21 22 23 24 25 26 27 28 29 30 31 32 33 34 35 36 37 38 39 40 41 42 43 44 45 46 47 48 49 50

000
ASUS43 KBIS 280559
RWRND

NORTH DAKOTA REGIONAL WEATHER ROUNDUP
NATIONAL WEATHER SERVICE BISMARCK ND
100 AM CDT MON JUL 28 2014

NOTE: "FAIR" INDICATES FEW OR NO CLOUDS BELOW 12,000 FEET WITH NO
SIGNIFICANT WEATHER AND/OR OBSTRUCTIONS TO VISIBILITY.


NDZ001>003-009>011-017-280700-
NORTHWEST NORTH DAKOTA

CITY           SKY/WX    TMP DP  RH WIND       PRES   REMARKS
WILLISTON      CLEAR     55  51  86 CALM      30.30R
6HR MIN TEMP:  55; 6HR MAX TEMP:  74;

MINOT          CLEAR     57  52  83 CALM      30.29R
$$

NDZ018>021-031>035-040>046-280700-
SOUTHWEST NORTH DAKOTA

CITY           SKY/WX    TMP DP  RH WIND       PRES   REMARKS
BISMARCK       CLEAR     56  52  86 CALM      30.31R
6HR MIN TEMP:  52; 6HR MAX TEMP:  69;

GARRISON         N/A     52  50  93 NW3       30.30R
6HR MIN TEMP:  52; 6HR MAX TEMP:  68;

HETTINGER ARPT CLEAR     52  49  89 E3        30.34R
$$

NDZ004>008-012>016-024-026-027-054-280700-
NORTHEAST NORTH DAKOTA

CITY           SKY/WX    TMP DP  RH WIND       PRES   REMARKS
GRAND FORKS    CLOUDY    61  56  83 NW7         N/A
DEVILS LAKE    CLOUDY    57  52  82 NW5       30.25S
$$

NDZ022-023-025-028>030-036>039-047>053-280700-
SOUTHEAST NORTH DAKOTA

CITY           SKY/WX    TMP DP  RH WIND       PRES   REMARKS
FARGO          CLOUDY    59  56  89 W6        30.21S
6HR MIN TEMP:  59; 6HR MAX TEMP:  67;

$$



USA.gov is the U.S. government's official web portal to all federal, state and local government web resources and services.